CDT,Max TemperatureF,Mean TemperatureF,Min TemperatureF,Max Dew PointF,MeanDew PointF,Min DewpointF,Max Humidity, Mean Humidity, Min Humidity, Max Sea Level PressureIn, Mean Sea Level PressureIn, Min Sea Level PressureIn, Max VisibilityMiles, Mean VisibilityMiles, Min VisibilityMiles, Max Wind SpeedMPH, Mean Wind SpeedMPH, Max Gust SpeedMPH,PrecipitationIn, CloudCover, Events, WindDirDegrees
2013-7-1,79,74,68,70,67,64,100,85,65,29.95,29.87,29.80,10,8,0,14,6,25,0.13,6,,162
2013-7-2,84,76,68,72,68,64,94,81,54,30.08,30.01,29.93,10,9,4,10,6,,0.27,6,,164
2013-7-3,73,72,70,70,69,66,94,92,88,30.16,30.10,30.05,10,10,5,10,7,16,1.12,8,Thunderstorm,138
2013-7-4,70,69,68,68,66,64,94,90,83,30.15,30.10,30.01,10,9,5,24,9,40,0.97,8,,137
2013-7-5,75,71,66,70,67,64,94,89,78,30.19,30.14,30.11,10,10,4,10,7,16,0.35,6,,141
2013-7-6,77,74,70,72,69,66,94,91,88,30.15,30.12,30.08,10,9,2,12,7,21,1.10,7,,141
2013-7-7,79,75,70,72,69,66,100,90,74,30.20,30.16,30.12,10,10,4,7,4,17,0.03,5,,128
2013-7-8,84,77,70,70,68,66,100,80,58,30.24,30.19,30.14,10,10,2,13,4,,0.00,4,Thunderstorm,187
2013-7-9,88,78,68,72,69,66,94,78,62,30.22,30.17,30.11,10,10,10,8,4,,0.00,3,Thunderstorm,256
2013-7-10,88,79,70,73,69,66,100,86,58,30.13,30.08,30.00,10,8,0,9,3,33,0.62,4,Thunderstorm,252
2013-7-11,81,76,70,72,70,68,100,88,74,30.03,29.98,29.92,10,7,0,12,5,,0.00,6,Thunderstorm,245
2013-7-12,88,80,72,72,70,66,94,83,55,29.96,29.93,29.89,10,7,0,15,5,20,0.00,5,Thunderstorm,301
2013-7-13,81,74,66,70,67,63,94,85,69,30.06,29.99,29.92,10,10,4,10,6,30,0.20,5,Thunderstorm,73
2013-7-14,84,77,70,72,69,66,94,80,62,30.16,30.09,30.02,10,10,6,13,8,17,0.01,5,Thunderstorm,97
2013-7-15,84,78,72,70,68,66,88,78,58,30.26,30.21,30.16,10,10,9,13,10,23,0.04,5,Thunderstorm,92
2013-7-16,84,78,72,70,68,66,94,76,55,30.31,30.27,30.24,10,10,10,13,8,16,0.00,4,,86
2013-7-17,90,80,70,72,68,63,94,68,46,30.31,30.24,30.16,10,10,5,9,4,20,0.00,1,,40
2013-7-18,86,76,66,70,67,64,94,74,58,30.22,30.16,30.09,10,10,10,9,5,,0.00,2,Thunderstorm,82
2013-7-19,90,81,72,70,68,63,94,71,43,30.15,30.09,30.01,10,10,10,8,4,,0.00,1,Thunderstorm,161
2013-7-20,84,77,70,72,69,66,100,82,62,30.09,30.04,29.99,10,9,0,12,6,,0.00,3,,183
2013-7-21,84,77,70,72,70,66,94,86,62,30.08,30.05,30.00,10,8,0,10,6,17,0.05,5,Thunderstorm,226
2013-7-22,82,76,70,72,69,66,100,87,66,30.08,30.03,29.97,10,10,8,15,9,22,0.22,7,Thunderstorm,247
2013-7-23,84,75,66,72,68,64,94,85,58,30.07,29.98,29.91,10,9,1,15,7,21,0.83,6,Thunderstorm,269
2013-7-24,82,74,66,72,67,63,94,86,65,29.95,29.92,29.86,10,9,4,9,5,39,0.33,4,Thunderstorm,286
2013-7-25,86,78,70,70,68,66,94,74,55,30.03,29.96,29.88,10,10,7,9,6,,0.00,1,,330
2013-7-26,84,75,66,68,65,61,94,69,45,30.08,30.04,30.01,10,10,5,10,5,,0.00,0,,304
2013-7-27,81,76,70,68,66,63,88,78,54,30.02,29.99,29.96,10,10,10,10,2,,0.00,1,,238
2013-7-28,86,76,66,72,66,63,94,74,51,30.07,30.01,29.97,10,10,8,8,2,,0.00,1,,172
2013-7-29,88,79,70,70,67,63,94,72,49,30.18,30.12,30.05,10,10,6,9,5,,0.00,1,,23
2013-7-30,90,78,66,73,66,59,83,67,52,30.22,30.17,30.13,10,10,10,7,5,,0.00,1,Thunderstorm,93
2013-7-31,75,73,70,72,70,66,94,89,78,30.14,30.09,30.03,10,10,5,9,5,,0.49,5,Thunderstorm,172